Flag for Venezuela Weather past 2 weeks in Barquisimeto, Venezuela

Now
75 °F

Passing clouds.


Feels Like: 76 °F
Forecast: 69 / 92 °F
Wind: 9 mph from Southeast

Location: Barquisimeto Airport

Current Time: Sep 4, 2015 at 11:16:35 PM

Latest Report: Sep 4, 2015 at 10:30 PM


Visibility: N/A

Pressure: 30.01 "Hg (28.11 "Hg at 569m altitude)

Humidity: 78%

Dew point: 68 °F

Location of BarquisimetoLocation

Historic Weather in Barquisimeto — Graph

°F

Barquisimeto temperature yesterday

Maximum temperature yesterday: 88 °F (at 1:30 PM)
Minimum temperature yesterday: 70 °F (at 5:30 AM)
Average temperature yesterday: 80 °F

Past Weeks' High & Low Weather Summary

 TemperatureHumidityPressure
High91 °F (Aug 26, 2:30 PM)100% (Aug 23, 6:30 AM)30.07 "Hg (Aug 23, 6:30 AM)
Low68 °F (Aug 23, 6:30 AM)29% (Aug 25, 3:30 PM)29.89 "Hg (Aug 22, 3:30 PM)
Average78 °F70%29.99 "Hg
* Reported Aug 20 9:30 PM — Sep 4 9:30 PM, Barquisimeto, Weather by CustomWeather, © 2015

Note: Actual official high and low records may vary slightly from our data, if they occured in-between our weather recording intervals... More about our weather records

Advertising

Barquisimeto weather history for previous 24 hours

 ConditionsComfort  
Time TempWeatherWind HumidityBarometerVisibility
9:30 PM
Fri, Sep 4
75 °FPassing clouds.9 mph78%30.01 "HgN/A
8:30 PM77 °FPassing clouds.12 mph74%29.98 "HgN/A
7:30 PM81 °FThunderstorms. Overcast.N/A66%29.98 "HgN/A
6:30 PM82 °FPassing clouds.12 mph62%29.98 "HgN/A
5:30 PM84 °FScattered clouds.14 mph55%29.98 "HgN/A
4:30 PM88 °FScattered clouds.14 mph49%29.98 "HgN/A
3:30 PM88 °FPartly sunny.14 mph49%29.98 "HgN/A
2:30 PM88 °FPartly sunny.15 mph49%30.01 "HgN/A
1:30 PM88 °FPartly sunny.18 mph49%30.04 "HgN/A
12:30 PM88 °FPartly sunny.15 mph49%30.04 "HgN/A
11:30 AM86 °FPartly sunny.16 mph52%30.07 "HgN/A
10:30 AM84 °FPartly sunny.18 mph55%30.07 "HgN/A
9:30 AM82 °FScattered clouds.16 mph62%30.07 "HgN/A
8:30 AM75 °FScattered clouds.9 mph78%30.07 "HgN/A
7:30 AM72 °FPartly sunny.5 mph88%30.07 "HgN/A
6:30 AM72 °FFog.6 mph88%30.04 "Hg1 mi
5:30 AM72 °FPartly sunny.No wind88%30.01 "HgN/A
4:30 AM72 °FPassing clouds.5 mph88%30.01 "HgN/A
Weather by CustomWeather, © 2015

See weather overviewHow to use our weather pages